Tracking 31011 objects as of 12-Jul-2025
HD Live streaming from Space Station
objects crossing your sky now

OSCAR 15 (UOSAT 4)

Track OSCAR 15 (UOSAT 4) now!
10-day predictions
OSCAR 15 (UOSAT 4) is classified as:


NORAD ID: 20438
Int'l Code: 1990-005C
Perigee: 787.2 km
Apogee: 799.7 km
Inclination: 98.8 °
Period: 100.6 minutes
Semi major axis: 7164 km
RCS: 0.311 m2 (medium)
Launch date: January 22, 1990
Source: United Kingdom (UK)
Launch site: FRENCH GUIANA (FRGUI)

Uplink (MHz):
Downlink (MHz): 435.120
Beacon (MHz): 435.120
Mode: CW
Call sign:
Status: Reentered

Your satellite tracking list
Your tracking list is empty




NASA's NSSDC Master Catalog

Two Line Element Set (TLE):
1 20438U 90005C   25192.92110131  .00000042  00000-0  33241-4 0  9991
2 20438  98.8354 239.5358 0008676 267.1939 266.8643 14.31623475851538
Source of the keplerian elements: AFSPC